Caldwell, NJ

6:05 PM EST on December 05, 2019 (GMT -0500)
Essex County

Weather History for KCDW - June, 2019

Change the Weather History Date:

Wednesday, June 12, 2019

  Actual Average Record
Temperature  
Mean Temperature 64 °F -  
Max Temperature 77 °F 79 °F 96 °F (1984)
Min Temperature 52 °F 55 °F 39 °F (1980)
Growing Degree Days 14 (Base 50)    
Moisture  
Dew Point 48 °F    
Average Humidity 55    
Maximum Humidity 89    
Minimum Humidity 31    
Precipitation  
Precipitation 0.00 in - - ()
Sea Level Pressure  
Sea Level Pressure 30.17 in    
Wind  
Wind Speed 3 mph (SSE)    
Max Wind Speed 14 mph    
Max Gust Speed 21 mph    
Visibility 10 miles    
Events      
Averages and records for this station are not official NWS values.
T = Trace of Precipitation, MM = Missing Value Source: NWS Daily Summary

Daily Weather History Graph

Daily Weather History Graph

Search for Another Location

Airport or City:

Astronomy

Jun. 12, 2019 Rise Set
Actual Time 5:24 AM EDT 8:29 PM EDT
Civil Twilight 4:51 AM EDT 9:02 PM EDT
Nautical Twilight 4:08 AM EDT 9:45 PM EDT
Astronomical Twilight 3:18 AM EDT 10:35 PM EDT
Moon 3:31 PM EDT (6/12) 2:40 AM EDT (6/12)
Length of Visible Light 16h 11m
Length of Day
15h 04m
Waxing Gibbous, 76% of the Moon is Illuminated
Jun 12
Waxing Gibbous
Jun 17
Full
Jun 25
Last Quarter
Jul 2
New
Jul 9
First Quarter

Hourly Weather History & Observations

Time (EDT) Temp. Dew Point Humidity Pressure Visibility Wind Dir Wind Speed Gust Speed Precip Events Conditions
12:53 AM 57.9 °F 46.9 °F 67% 30.14 in 10.0 mi Calm Calm - N/A   Clear
1:53 AM 57.0 °F 48.0 °F 72% 30.14 in 10.0 mi Calm Calm - N/A   Clear
2:53 AM 54.0 °F 48.0 °F 80% 30.14 in 10.0 mi Calm Calm - N/A   Clear
3:53 AM 54.0 °F 48.9 °F 83% 30.15 in 10.0 mi Calm Calm - N/A   Clear
4:53 AM 53.1 °F 48.0 °F 83% 30.17 in 10.0 mi Calm Calm - N/A   Clear
5:53 AM 52.0 °F 48.9 °F 89% 30.20 in 10.0 mi Calm Calm - N/A   Clear
6:53 AM 55.9 °F 50.0 °F 80% 30.21 in 10.0 mi Calm Calm - N/A   Clear
7:53 AM 61.0 °F 48.0 °F 62% 30.22 in 10.0 mi Calm Calm - N/A   Clear
8:53 AM 66.9 °F 48.9 °F 52% 30.22 in 10.0 mi ENE 3.5 mph - N/A   Clear
9:53 AM 70.0 °F 46.9 °F 44% 30.22 in 10.0 mi Calm Calm - N/A   Clear
10:53 AM 73.0 °F 46.0 °F 38% 30.21 in 10.0 mi East 8.1 mph - N/A   Clear
11:53 AM 75.0 °F 46.0 °F 36% 30.20 in 10.0 mi Variable 4.6 mph - N/A   Clear
12:53 PM 75.9 °F 46.9 °F 36% 30.20 in 10.0 mi Variable 3.5 mph - N/A   Clear
1:53 PM 75.9 °F 45.0 °F 33% 30.18 in 10.0 mi SSE 11.5 mph - N/A   Clear
2:53 PM 77.0 °F 44.1 °F 31% 30.17 in 10.0 mi South 12.7 mph 19.6 mph N/A   Clear
3:53 PM 75.9 °F 46.0 °F 35% 30.16 in 10.0 mi South 9.2 mph 20.7 mph N/A   Clear
4:53 PM 73.9 °F 46.0 °F 37% 30.15 in 10.0 mi SSE 12.7 mph - N/A   Clear
5:53 PM 72.0 °F 48.0 °F 43% 30.15 in 10.0 mi SE 13.8 mph - N/A   Clear
6:53 PM 69.1 °F 46.9 °F 45% 30.15 in 10.0 mi SSE 10.4 mph - N/A   Clear
7:53 PM 66.9 °F 45.0 °F 45% 30.14 in 10.0 mi SE 9.2 mph - N/A   Clear
8:53 PM 66.0 °F 45.0 °F 47% 30.14 in 10.0 mi SE 9.2 mph - N/A   Clear
9:53 PM 66.0 °F 52.0 °F 60% 30.15 in 10.0 mi South 3.5 mph - N/A   Clear
10:53 PM 64.9 °F 54.0 °F 68% 30.14 in 10.0 mi SSE 9.2 mph - N/A   Clear
11:53 PM 64.9 °F 53.1 °F 65% 30.12 in 10.0 mi South 3.5 mph - N/A   Clear